Hourly Data Report for September 24, 2003

TORONTO CITY
ONTARIO

43°40'00.000" N
79°24'00.000" W
112.50 m
6158355
71508
XTO

Download Data

Hourly Data (September 2003)
Hourly Data Report for September 24, 2003
TIME
LST
Temp Definition
°C
Dew Point Definition
°C
Rel Hum Definition
%
Precip. Amount Definition
mm

Wind Dir Definition
10's deg

Wind Spd Definition
km/h
Visibility Definition
km
Stn Press Definition
kPa
Hmdx Definition


Wind Chill Definition


Weather Definition


00:00 14.8 9.8 72   LegendMM LegendMM LegendMM 99.92     LegendNANA
01:00 14.1 9.3 73   LegendMM LegendMM LegendMM 99.95     LegendNANA
02:00 13.3 9.0 75   LegendMM LegendMM LegendMM 100.01     LegendNANA
03:00 12.8 8.8 77   LegendMM LegendMM LegendMM 100.05     LegendNANA
04:00 12.4 8.5 77   LegendMM LegendMM LegendMM 100.08     LegendNANA
05:00 11.8 8.4 80   LegendMM LegendMM LegendMM 100.13     LegendNANA
06:00 11.2 8.6 84   LegendMM LegendMM LegendMM 100.20     LegendNANA
07:00 11.0 9.1 88   LegendMM LegendMM LegendMM 100.22     LegendNANA
08:00 13.9 9.6 75   LegendMM LegendMM LegendMM 100.19     LegendNANA
09:00 15.7 9.6 67   LegendMM LegendMM LegendMM 100.19     LegendNANA
10:00 17.6 10.8 64   LegendMM LegendMM LegendMM 100.19     LegendNANA
11:00 19.9 12.7 63   LegendMM LegendMM LegendMM 100.14     LegendNANA
12:00 20.1 11.4 57   LegendMM LegendMM LegendMM 100.05     LegendNANA
13:00 20.7 12.2 58   LegendMM LegendMM LegendMM 99.94     LegendNANA
14:00 20.2 11.1 56   LegendMM LegendMM LegendMM 99.83     LegendNANA
15:00 19.6 11.6 60   LegendMM LegendMM LegendMM 99.75     LegendNANA
16:00 19.8 11.7 60   LegendMM LegendMM LegendMM 99.66     LegendNANA
17:00 19.5 11.6 60   LegendMM LegendMM LegendMM 99.56     LegendNANA
18:00 19.3 13.0 67   LegendMM LegendMM LegendMM 99.55     LegendNANA
19:00 19.1 13.7 71   LegendMM LegendMM LegendMM 99.47     LegendNANA
20:00 19.0 14.2 74   LegendMM LegendMM LegendMM 99.39     LegendNANA
21:00 18.8 14.8 78   LegendMM LegendMM LegendMM 99.33     LegendNANA
22:00 18.9 14.8 77   LegendMM LegendMM LegendMM 99.35     LegendNANA
23:00 18.3 14.7 80   LegendMM LegendMM LegendMM 99.27     LegendNANA

Notes on Data Quality.

Legend

  • E = Estimated
  • M = Missing
  • NA = Not Available*
  • [empty] = Indicates an unobserved value
Date modified: